Location: Unspecified
(40.7945°N, 111.1337°W)
Time: 23:47:40
(UTC-06:00)

Vanguard 1 - Pass Details

Date: 20 June 2019
Orbit: 653 x 3830 km, 34.3° (Epoch: 17 July)

Event Time Altitude Azimuth Distance (km) Brightness Sun altitude
Exits shadow 01:14:09 17° 137° (SE) 5,446 13.4 -25.7°
Drops below altitude 10° 01:21:49 10° 109° (ESE) 5,380 13.6 -25.8°
Sets 01:27:22 0° 91° (E) 5,819 14.0 -25.8°
